When you browse on this site, cookies collect data to enhance your experience and personalize the content and advertising you see.
Visit our Privacy Policy to learn more. By continuing to use the site, you agree to this use of cookies and data.
  • In France
  • List of Countries
  • For 7 days
  • Water Temperature
  • Satellite Maps
  • Weather Map
  • Weather Widgets
  • user-avatar
    Login

    Hourly Weather Klagenfurt

    Today, 20 April, Saturday

    Time Temperature Precipitation Wind Pressure Humidity
    00:00 +7°C° 0 mm 1 mps 697 mmHg 76%
    01:00 +7°C° 0 mm 1 mps 697 mmHg 77%
    02:00 +6°C° 0 mm 1 mps 697 mmHg 78%
    03:00 +6°C° 0 mm 1 mps 697 mmHg 78%
    04:00 +6°C° 0 mm 1 mps 697 mmHg 79%
    05:00 +7°C° 0 mm 1 mps 697 mmHg 75%
    06:00 +8°C° 0 mm 1 mps 697 mmHg 70%
    07:00 +9°C° 0 mm 1 mps 698 mmHg 66%
    08:00 +12°C° 0 mm 1 mps 698 mmHg 58%
    09:00 +15°C° 0 mm 1 mps 698 mmHg 51%
    10:00 +18°C° 0 mm 1 mps 699 mmHg 43%
    11:00 +19°C° 0 mm 1 mps 699 mmHg 41%
    12:00 +20°C° 0 mm 1 mps 699 mmHg 38%
    13:00 +20°C° 0 mm 1 mps 698 mmHg 36%
    14:00 +20°C° 0 mm 1 mps 698 mmHg 38%
    15:00 +19°C° 0 mm 1 mps 698 mmHg 40%
    16:00 +19°C° 0 mm 1 mps 697 mmHg 42%
    17:00 +15°C° 0 mm 1 mps 697 mmHg 51%
    18:00 +13°C° 0 mm 1 mps 696 mmHg 60%
    19:00 +10°C° 0 mm 1 mps 695 mmHg 70%
    20:00 +10°C° 0 mm 1 mps 695 mmHg 73%
    21:00 +8°C° 0 mm 0 mps 696 mmHg 76%
    22:00 +7°C° 0 mm 0 mps 696 mmHg 79%
    23:00 +6°C° 0 mm 0 mps 695 mmHg 80%

    Tomorrow, 21 April, Sunday

    Time Temperature Precipitation Wind Pressure Humidity
    00:00 +6°C° 0 mm 0 mps 695 mmHg 81%
    01:00 +6°C° 0 mm 0 mps 695 mmHg 81%
    02:00 +5°C° 0 mm 0 mps 695 mmHg 82%
    03:00 +5°C° 0 mm 0 mps 694 mmHg 82%
    04:00 +5°C° 0 mm 0 mps 694 mmHg 83%
    05:00 +6°C° 0 mm 0 mps 694 mmHg 78%
    06:00 +8°C° 0 mm 0 mps 694 mmHg 74%
    07:00 +9°C° 0 mm 0 mps 694 mmHg 69%
    08:00 +12°C° 0 mm 0 mps 694 mmHg 61%
    09:00 +15°C° 0 mm 1 mps 695 mmHg 53%
    10:00 +19°C° 0 mm 1 mps 695 mmHg 45%
    11:00 +19°C° 0 mm 1 mps 694 mmHg 42%
    12:00 +20°C° 0 mm 1 mps 694 mmHg 40%
    13:00 +21°C° 0 mm 1 mps 694 mmHg 37%
    14:00 +21°C° 0 mm 1 mps 693 mmHg 39%
    15:00 +20°C° 0 mm 1 mps 693 mmHg 40%
    16:00 +19°C° 0 mm 2 mps 692 mmHg 42%
    17:00 +16°C° 0 mm 1 mps 692 mmHg 52%
    18:00 +14°C° 0 mm 1 mps 691 mmHg 63%
    19:00 +12°C° 0 mm 1 mps 691 mmHg 73%
    20:00 +11°C° 0 mm 1 mps 691 mmHg 79%
    21:00 +10°C° 0 mm 1 mps 691 mmHg 84%
    22:00 +9°C° 0 mm 1 mps 691 mmHg 89%
    23:00 +8°C° 0 mm 1 mps 691 mmHg 90%

    Day after tomorrow, 22 April, Monday

    Time Temperature Precipitation Wind Pressure Humidity
    00:00 +8°C° 0 mm 1 mps 690 mmHg 91%
    01:00 +7°C° 0 mm 1 mps 690 mmHg 91%
    02:00 +7°C° 0 mm 1 mps 689 mmHg 90%
    03:00 +6°C° 0 mm 1 mps 689 mmHg 88%
    04:00 +6°C° 0 mm 1 mps 688 mmHg 87%
    05:00 +7°C° 0 mm 1 mps 688 mmHg 79%
    06:00 +8°C° 0 mm 1 mps 688 mmHg 71%
    07:00 +9°C° 0 mm 1 mps 688 mmHg 64%
    08:00 +11°C° 0 mm 1 mps 688 mmHg 55%
    09:00 +14°C° 0 mm 1 mps 688 mmHg 45%
    10:00 +16°C° 0 mm 2 mps 688 mmHg 36%
    11:00 +16°C° 0 mm 2 mps 687 mmHg 36%
    12:00 +17°C° 0 mm 3 mps 687 mmHg 37%
    13:00 +17°C° 0 mm 3 mps 687 mmHg 37%
    14:00 +17°C° 0 mm 3 mps 686 mmHg 40%
    15:00 +16°C° 0 mm 3 mps 685 mmHg 43%
    16:00 +16°C° 0 mm 3 mps 685 mmHg 46%
    17:00 +13°C° 0 mm 3 mps 684 mmHg 55%
    18:00 +12°C° 0 mm 2 mps 684 mmHg 64%
    19:00 +11°C° 0 mm 1 mps 683 mmHg 73%
    20:00 +10°C° 0 mm 1 mps 683 mmHg 76%
    21:00 +10°C° 0 mm 1 mps 683 mmHg 78%
    22:00 +9°C° 0 mm 1 mps 683 mmHg 81%
    23:00 +9°C° 0.6 mm 1 mps 683 mmHg 84%

    23 April, Tuesday

    Time Temperature Precipitation Wind Pressure Humidity
    00:00 +8°C° 0.6 mm 0 mps 682 mmHg 87%
    01:00 +7°C° 0.6 mm 0 mps 681 mmHg 90%
    02:00 +7°C° 2.5 mm 0 mps 681 mmHg 92%
    03:00 +7°C° 2.5 mm 0 mps 680 mmHg 94%
    04:00 +8°C° 2.5 mm 1 mps 680 mmHg 95%
    05:00 +8°C° 2.1 mm 1 mps 680 mmHg 95%
    06:00 +8°C° 2.1 mm 1 mps 680 mmHg 95%
    07:00 +8°C° 2.1 mm 1 mps 680 mmHg 95%
    08:00 +8°C° 2 mm 1 mps 680 mmHg 94%
    09:00 +8°C° 2 mm 1 mps 680 mmHg 93%
    10:00 +8°C° 2 mm 1 mps 680 mmHg 93%
    11:00 +9°C° 1.7 mm 1 mps 680 mmHg 92%
    12:00 +9°C° 1.7 mm 1 mps 680 mmHg 91%
    13:00 +10°C° 1.7 mm 1 mps 680 mmHg 90%
    14:00 +10°C° 1.1 mm 1 mps 680 mmHg 91%
    15:00 +11°C° 1.1 mm 1 mps 681 mmHg 91%
    16:00 +11°C° 1.1 mm 1 mps 681 mmHg 92%
    17:00 +11°C° 1.6 mm 1 mps 681 mmHg 93%
    18:00 +11°C° 1.6 mm 1 mps 681 mmHg 94%
    19:00 +11°C° 1.6 mm 1 mps 681 mmHg 96%
    20:00 +11°C° 0.4 mm 1 mps 682 mmHg 96%
    21:00 +10°C° 0.4 mm 1 mps 683 mmHg 96%
    22:00 +10°C° 0.4 mm 1 mps 683 mmHg 97%
    23:00 +10°C° 0.7 mm 1 mps 684 mmHg 97%

    24 April, Wednesday

    Time Temperature Precipitation Wind Pressure Humidity
    00:00 +10°C° 0.7 mm 1 mps 684 mmHg 97%
    01:00 +10°C° 0.7 mm 1 mps 684 mmHg 97%
    02:00 +10°C° 0.7 mm 1 mps 685 mmHg 97%
    03:00 +10°C° 0.7 mm 1 mps 685 mmHg 97%
    04:00 +10°C° 0.7 mm 1 mps 685 mmHg 97%
    05:00 +11°C° 0.2 mm 1 mps 686 mmHg 96%
    06:00 +11°C° 0.2 mm 1 mps 686 mmHg 95%
    07:00 +11°C° 0.2 mm 1 mps 687 mmHg 94%
    08:00 +12°C° 0.1 mm 2 mps 687 mmHg 92%
    09:00 +12°C° 0.1 mm 2 mps 688 mmHg 89%
    10:00 +13°C° 0.1 mm 2 mps 688 mmHg 87%
    11:00 +14°C° 0.1 mm 2 mps 689 mmHg 84%
    12:00 +14°C° 0.1 mm 2 mps 689 mmHg 81%
    13:00 +15°C° 0.1 mm 2 mps 689 mmHg 77%
    14:00 +15°C° 0.1 mm 2 mps 689 mmHg 78%
    15:00 +15°C° 0.1 mm 2 mps 689 mmHg 79%
    16:00 +15°C° 0.1 mm 2 mps 689 mmHg 79%
    17:00 +14°C° 0 mm 2 mps 689 mmHg 83%
    18:00 +13°C° 0 mm 2 mps 689 mmHg 87%
    19:00 +12°C° 0 mm 1 mps 689 mmHg 91%
    20:00 +12°C° 0 mm 1 mps 689 mmHg 93%
    21:00 +11°C° 0 mm 1 mps 690 mmHg 95%
    22:00 +10°C° 0 mm 1 mps 690 mmHg 97%
    23:00 +10°C° 0 mm 1 mps 690 mmHg 97%

    25 April, Thursday

    Time Temperature Precipitation Wind Pressure Humidity
    00:00 +10°C° 0 mm 1 mps 690 mmHg 97%
    01:00 +10°C° 0 mm 1 mps 690 mmHg 97%
    02:00 +9°C° 0 mm 1 mps 690 mmHg 97%
    03:00 +9°C° 0 mm 1 mps 689 mmHg 97%
    04:00 +9°C° 0 mm 1 mps 689 mmHg 97%
    05:00 +10°C° 0 mm 1 mps 689 mmHg 94%
    06:00 +11°C° 0 mm 1 mps 689 mmHg 91%
    07:00 +11°C° 0 mm 1 mps 689 mmHg 88%
    08:00 +13°C° 0 mm 2 mps 689 mmHg 84%
    09:00 +14°C° 0 mm 2 mps 689 mmHg 79%
    10:00 +15°C° 0 mm 2 mps 689 mmHg 75%
    11:00 +16°C° 0 mm 2 mps 689 mmHg 71%
    12:00 +17°C° 0 mm 2 mps 689 mmHg 68%
    13:00 +18°C° 0 mm 2 mps 689 mmHg 64%
    14:00 +18°C° 0.1 mm 2 mps 689 mmHg 64%
    15:00 +18°C° 0.1 mm 2 mps 688 mmHg 64%
    16:00 +18°C° 0.1 mm 2 mps 688 mmHg 64%
    17:00 +16°C° 0 mm 2 mps 687 mmHg 72%
    18:00 +15°C° 0 mm 1 mps 686 mmHg 80%
    19:00 +13°C° 0 mm 1 mps 686 mmHg 88%
    20:00 +13°C° 0.1 mm 1 mps 686 mmHg 88%
    21:00 +13°C° 0.1 mm 1 mps 686 mmHg 88%
    22:00 +12°C° 0.1 mm 1 mps 685 mmHg 88%
    23:00 +12°C° 0.4 mm 1 mps 685 mmHg 90%
    Show more